Flag for U.S.A. Weather past 2 weeks in Victorville, California, U.S.A.

Now
86 °F

Sunny.


Feels Like: 83 °F
Forecast: 52 / 86 °F
Wind: 3 mph from Northeast

Location: George Air Force Base / Victorvi

Current Time: Oct 23, 2014 at 2:59:51 PM

Latest Report: Oct 23, 2014 at 1:55 PM


Visibility: 10 mi

Pressure: 30.04 "Hg

Humidity: 11%

Dew point: 27 °F

Location of VictorvilleLocation

Historic Weather in Victorville — Graph

°F

Victorville temperature yesterday

Maximum temperature yesterday: 79 °F (at 2:55 PM)
Minimum temperature yesterday: 45 °F (at 7:15 AM)
Average temperature yesterday: 63 °F

Past Weeks' High & Low Weather Summary

 TemperatureHumidityPressure
High90 °F (Oct 9, 1:55 PM)94% (Oct 16, 2:55 AM)30.18 "Hg (Oct 16, 2:55 AM)
Low45 °F (Oct 17, 6:35 AM)4% (Oct 12, 4:55 PM)29.88 "Hg (Oct 8, 5:15 PM)
Average67 °F36%29.99 "Hg
* Reported Oct 8 1:55 PM — Oct 23 1:55 PM, Victorville, Weather by CustomWeather, © 2014

Note: Actual official high and low records may vary slightly from our data, if they occured in-between our weather recording intervals... More about our weather records

Advertising

Victorville weather history for previous 24 hours

 ConditionsComfort  
Time TempWeatherWind HumidityBarometerVisibility
1:55 PM
Oct 23
86 °FSunny.3 mph11%30.04 "Hg10 mi
1:15 PM82 °FSunny.No wind13%30.05 "Hg10 mi
12:55 PM82 °FSunny.No wind13%30.06 "Hg10 mi
12:35 PM82 °FSunny.No wind13%30.07 "Hg10 mi
12:15 PM81 °FSunny.No wind14%30.08 "Hg10 mi
11:55 AM79 °FSunny.No wind15%30.09 "Hg10 mi
11:35 AM77 °FScattered clouds.3 mph17%30.10 "Hg10 mi
11:15 AM75 °FSunny.5 mph16%30.11 "Hg10 mi
10:55 AM73 °FSunny.6 mph19%30.11 "Hg10 mi
10:35 AM73 °FSunny.6 mph19%30.11 "Hg10 mi
10:15 AM73 °FSunny.7 mph19%30.11 "Hg10 mi
9:55 AM72 °FSunny.8 mph17%30.11 "Hg10 mi
9:35 AM68 °FSunny.7 mph21%30.11 "Hg10 mi
9:15 AM64 °FSunny.8 mph24%30.11 "Hg10 mi
8:55 AM64 °FSunny.7 mph24%30.11 "Hg10 mi
8:35 AM61 °FSunny.7 mph27%30.10 "Hg10 mi
8:15 AM59 °FSunny.10 mph29%30.09 "Hg10 mi
7:55 AM57 °FClear.10 mph31%30.09 "Hg10 mi
7:35 AM55 °FClear.8 mph33%30.07 "Hg10 mi
6:55 AM54 °FClear.10 mph35%30.07 "Hg10 mi
6:35 AM54 °FClear.8 mph38%30.07 "Hg10 mi
6:15 AM52 °FClear.8 mph41%30.07 "Hg10 mi
5:55 AM52 °FClear.5 mph41%30.07 "Hg10 mi
5:15 AM52 °FClear.5 mph41%30.06 "Hg10 mi
4:55 AM54 °FClear.5 mph38%30.06 "Hg10 mi
4:15 AM55 °FClear.8 mph36%30.05 "Hg10 mi
3:55 AM55 °FClear.8 mph36%30.05 "Hg10 mi
3:15 AM57 °FClear.9 mph33%30.07 "Hg10 mi
2:55 AM54 °FClear.8 mph38%30.06 "Hg10 mi
2:35 AM54 °FClear.6 mph35%30.07 "Hg10 mi
2:15 AM54 °FClear.3 mph35%30.08 "Hg10 mi
1:55 AM55 °FClear.5 mph33%30.07 "Hg10 mi
1:35 AM54 °FClear.6 mph33%30.07 "Hg10 mi
1:15 AM54 °FClear.6 mph33%30.07 "Hg10 mi
12:55 AM55 °FClear.6 mph31%30.07 "Hg10 mi
12:15 AM54 °FClear.7 mph30%30.07 "Hg10 mi
11:55 PM
Oct 22
55 °FClear.5 mph28%30.07 "Hg7 mi
11:15 PM57 °FClear.5 mph27%30.08 "Hg10 mi
10:55 PM57 °FClear.3 mph27%30.08 "Hg10 mi
10:35 PM57 °FClear.3 mph27%30.07 "Hg10 mi
10:15 PM59 °FClear.3 mph25%30.07 "Hg10 mi
9:55 PM59 °FClear.5 mph25%30.07 "Hg10 mi
9:35 PM59 °FClear.5 mph23%30.07 "Hg10 mi
9:15 PM61 °FClear.5 mph23%30.07 "Hg10 mi
8:55 PM63 °FClear.5 mph22%30.06 "Hg10 mi
8:35 PM63 °FClear.3 mph20%30.06 "Hg10 mi
8:15 PM68 °FClear.No wind18%30.05 "Hg10 mi
7:55 PM70 °FClear.No wind16%30.05 "Hg10 mi
7:15 PM72 °FClear.No wind16%30.04 "Hg10 mi
6:55 PM72 °FSunny.3 mph16%30.04 "Hg10 mi
6:15 PM75 °FSunny.No wind14%30.03 "Hg10 mi
5:55 PM75 °FSunny.No wind14%30.03 "Hg10 mi
5:15 PM79 °FSunny.3 mph13%30.02 "Hg10 mi
4:55 PM79 °FSunny.3 mph15%30.02 "Hg10 mi
4:35 PM79 °FSunny.3 mph15%30.02 "Hg10 mi
4:15 PM79 °FSunny.No wind15%30.02 "Hg10 mi
3:55 PM79 °FSunny.No wind15%30.03 "Hg10 mi
3:35 PM79 °FSunny.No wind15%30.03 "Hg10 mi
3:15 PM79 °FSunny.No wind15%30.03 "Hg10 mi
2:55 PM79 °FSunny.No wind15%30.03 "Hg10 mi
2:15 PM77 °FSunny.No wind17%30.04 "Hg10 mi
Weather by CustomWeather, © 2014

See weather overviewHow to use our weather pages